User: anonymous   Login
Location: Benque
(43.2594°N, 0.9178°E)
Time: 15:22:00
(UTC+00:00)
Language:

Shenzhou-11 Module - Orbit

View from above orbital plane
View from above orbital plane
View from above satellite
View from above satellite

Ground track
Ground track

The orbit data is extracted from the following two-line orbital elements,

1 41868U 16061G   20094.90988925 +.00036768 +87497-5 +11368-3 0  9998
2 41868 042.7889 245.8514 0013526 324.6702 172.5098 15.91917013194167
Epoch (UTC): 03 April 2020 21:50:14
Eccentricity: 0.0013526
inclination: 42.7889°
perigee height: 288 km
apogee height: 306 km
right ascension of ascending node: 245.8514°
argument of perigee: 324.6702°
revolutions per day: 15.91917013
mean anomaly at epoch: 172.5098°
orbit number at epoch: 19416

The dashed part of the orbit path shows where the satellite is in the earth's shadow,  

DLR